Regional Weather Roundup
Issued by NWS

Home | Current Version | Previous Version | Text Only | Print | Product List | Glossary Off
Versions: 1 2 3 4 5 6 7 8 9 10 11 12 13 14 15 16 17 18 19 20 21 22 23 24 25 26 27 28 29 30 31 32 33 34 35 36 37 38 39 40 41 42 43 44 45 46 47 48 49 50

000
ASUS43 KIND 271509
RWRIN

WEATHER ROUNDUP FOR INDIANA
NATIONAL WEATHER SERVICE INDIANAPOLIS IN
1000 AM EST SAT DEC 27 2014

NOTE: "FAIR" INDICATES FEW OR NO CLOUDS BELOW 12,000 FEET WITH NO
SIGNIFICANT WEATHER AND/OR OBSTRUCTIONS TO VISIBILITY.

* - STATION DOES NOT REPORT WEATHER SUCH AS PRECIPITATION OR FOG.

+ - STATION NOT QUALITY CONTROLLED BY THE NATIONAL WEATHER SERVICE.
    USE DATA WITH CAUTION...ESPECIALLY DEWPOINT AND RELATIVE
    HUMIDITY OBSERVATIONS.

INZ001>003-010>013-019-020-271600-
NORTHWEST INDIANA

CITY           SKY/WX    TMP DP  RH WIND       PRES   REMARKS
GARY /AIRPORT/ CLOUDY    48  43  81 S17       29.98  FOG
KNOX *+        CLOUDY    45  41  86 S16       30.02F
LA PORTE +     FOG       47  47 100 S14G21    30.01F VSB 1
MICHIGAN CITY+ CLOUDY    45  45 100 S12       30.01F FOG
MONTICELLO +   CLOUDY    45  44  98 S12       30.06F FOG
RENSSELAER +   CLOUDY    45  45 100 S15       30.04S FOG
VALPARAISO     FOG       45  45 100 S13G22    30.02F VSB 3/4

$$

LMZ046-743>745-271600-
SOUTHERN LAKE MICHIGAN

STATION/POSITION TIME  TEMP WIND        PRES
                       AIR  DIR/SP/G
                 (UTC) (F)  (DEG/KT/KT) (MB)
MICHIGAN CITY    1500   46  170/ 15/ 22   N/A

$$

INZ004-005-014>016-021>024-271600-
NORTH CENTRAL INDIANA

CITY           SKY/WX    TMP DP  RH WIND       PRES   REMARKS
GOSHEN         CLOUDY    46  44  93 S17       30.04S FOG
LOGANSPORT +   CLOUDY    45  43  93 S14       30.09S FOG
PERU/GRISSOM   CLOUDY    45  45 100 SW16      30.09R FOG
ROCHESTER +    CLOUDY    46  46 100 SW10      30.07S FOG
SOUTH BEND     NOT AVBL
WARSAW +       DRIZZLE   43  43 100 SW6       30.06S

$$

INZ006>009-017-018-025>027-271600-
NORTHEAST INDIANA

CITY           SKY/WX    TMP DP  RH WIND       PRES   REMARKS
ANGOLA *+      CLOUDY    43  43 100 S9        30.05F
AUBURN +       CLOUDY    43  41  93 S9        30.08S FOG
FORT WAYNE     DRIZZLE   44  42  93 S16       30.10S
HUNTINGTON +   CLOUDY    44  42  95 S9        30.09S

$$

INZ028-029-035-036-043>045-051>053-271600-
WEST CENTRAL INDIANA

CITY           SKY/WX    TMP DP  RH WIND       PRES   REMARKS
GREENCASTLE +  CLOUDY    43  41  93 S7        30.13S FOG
LAFAYETTE      CLOUDY    44  44 100 S8        30.09S FOG
TERRE HAUTE    CLOUDY    45  43  93 S10       30.13S FOG

$$

INZ030>032-037>040-046>048-054>057-064-065-271600-
CENTRAL INDIANA

CITY           SKY/WX    TMP DP  RH WIND       PRES   REMARKS
ANDERSON       CLOUDY    45  41  87 S12G17    30.14S
CP ATTERBURY + LGT RAIN  43  41  93 MISG      30.17R
COLUMBUS       CLOUDY    43  39  87 S12       30.18R FOG
FRANKFORT +    CLOUDY   N/A N/A N/A S9        30.12R FOG
INDIANAPOLIS   DRIZZLE   43  42  97 S9        30.13S FOG
-EAGLE CREEK   CLOUDY    43  42  97 S9        30.13R FOG
KOKOMO *+      CLOUDY    45  41  87 SW14G21   30.10S
MARION +       CLOUDY    43  41  95 S18       30.11S
MT COMFORT *+  CLOUDY    43 N/A N/A S12       30.14S
SHELBYVILLE    LGT RAIN  45  41  86 S15       30.15S FOG
ZIONSVILLE +   CLOUDY    43  40  89 S10       30.12S FOG

$$

INZ033-034-041-042-049-050-058-059-271600-
EAST CENTRAL INDIANA

CITY           SKY/WX    TMP DP  RH WIND       PRES   REMARKS
MUNCIE         CLOUDY    45  41  86 S14G22    30.12S

$$

INZ060-061-067>069-081>083-085>088-271600-
SOUTHWEST INDIANA

CITY           SKY/WX    TMP DP  RH WIND       PRES   REMARKS
EVANSVILLE     CLOUDY    48  45  89 S8        30.19R
HUNTINGBURG *+ CLOUDY    45  43  93 S10       30.20R
WASHINGTON +   LGT RAIN  45  41  88 S12       30.16S

$$

INZ062-063-066-070>080-084-089>092-271600-
SOUTH CENTRAL AND SOUTHEAST INDIANA

CITY           SKY/WX    TMP DP  RH WIND       PRES   REMARKS
BLOOMINGTON    CLOUDY    45  44  97 S7        30.15S FOG
NORTH VERNON + CLOUDY    45  45 100 S7        30.18

$$



USA.gov is the U.S. government's official web portal to all federal, state and local government web resources and services.